Weather Roundup
Issued by NWS Corpus Christi, TX

Home | Current Version | Previous Version | Text Only | Print | Product List | Glossary On
Versions: 1 2 3 4 5 6 7 8 9 10 11 12 13 14 15 16 17 18 19 20 21 22 23 24 25 26 27 28 29 30 31 32 33 34 35 36 37 38 39 40 41 42 43 44 45 46 47 48 49 50
000
ASUS44 KCRP 030410
HRRCRP

SOUTH TEXAS REGIONAL WEATHER ROUNDUP
NATIONAL WEATHER SERVICE CORPUS CHRISTI TX
1100 PM CDT SUN AUG 02 2015


TXZ229>244-030500-
...CORPUS CHRISTI AREA OBSERVATIONS...

CITY           SKY/WX    TMP DP  RH WIND       PRES   REMARKS
CORPUS CHRISTI CLEAR     80  73  79 S5        29.87R
NAS CORPUS CHR CLEAR     81  76  84 S10       29.87R
ROCKPORT       CLEAR     84  75  74 SE9       29.86R HX  92
KINGSVILLE NAS CLEAR     79  77  94 S5        29.87R
ALICE          CLEAR     77  73  87 S6        29.87R
FALFURRIAS     CLEAR     79  72  79 SE5       29.88R
$$

...VICTORIA AREA OBSERVATIONS...

CITY           SKY/WX    TMP DP  RH WIND       PRES   REMARKS
VICTORIA       CLEAR     80  73  79 S6        29.88R
BEEVILLE       FAIR      77  74  91 SE6       29.87S
PLEASANTON     CLEAR     83  66  55 SE8       29.87R
SAN ANTONIO    CLEAR     84  61  45 SE7       29.88R
$$

...LAREDO AREA OBSERVATIONS...

CITY           SKY/WX    TMP DP  RH WIND       PRES   REMARKS
LAREDO         CLEAR     88  71  56 SE14      29.88R HX  93
COTULLA        CLEAR     87  69  54 SE9       29.87R HX  91
DEL RIO        CLEAR     89  59  36 E8        29.86R
MCALLEN        CLEAR     85  73  67 SE12      29.88R HX  91
HEBBRONVILLE     N/A     81  70  70 SE6       29.90R
$$

...OTHER TEXAS OBSERVATIONS...

CITY           SKY/WX    TMP DP  RH WIND       PRES   REMARKS
BROWNSVILLE    CLEAR     80  75  84 SE6       29.88R
HOUSTON        CLEAR     84  67  56 S5        29.88R
COL. STATION   CLEAR     84  62  47 S10       29.87R
AUSTIN         CLEAR     85  62  46 SE7       29.87R
WACO           CLEAR     81  59  47 E5        29.88R
FORT WORTH     PTCLDY    85  57  38 SE7       29.88R
WICHITA FALLS  CLEAR     79  65  62 SE9       29.88S
LUBBOCK        MOCLDY    79  62  56 S10       29.98R
EL PASO        TSTM      76  64  66 W14       30.04R
$$

...MARINE OBSERVATIONS...

STATION/POSITION TIME  SKY/WX   TEMP    WIND        PRES    VSBY  WAVE   SWELL
                                AIR SEA DIR/SP/G                  HT/PER HT/PER
                 (UTC)          (F)     (DEG/KT/KT) (MB)    (MI)  (FT/S) (FT/S)
PORT ARANSAS     0400            83 85  140/ 16/ 17 1012.1R
BUOY 90 E PORT A 0350            84 87  160/  6/  6 1011.8R         1/ 4
BUOY 45 SE BAFFI 0350            83 85  170/ 12/ 14 1011.5R         1/ 4
BUOY 200 E PT IS 0350            85 85  210/ 10/ 12 1012.7R         1/ 3
BUOY 15 E GALVES 0350            87 87  160/  8/ 10 1011.0R         1/ 2
$$


USA.gov is the U.S. government's official web portal to all federal, state and local government web resources and services.